Simultaneous Nadir Overpasses (SNOs) Predictions

Prediction of SNOs between METOP-A and NOAA-19 Satellite Orbit:

Table of predicted SNOs for the next 14.0 days since TLE Epoch: 12/9/2017
Index Date (METOP-A) Time (METOP-A) Lat,Lon (METOP-A) SZA (METOP-A ) Date (NOAA-19) Time (NOAA-19) Lat,Lon (NOAA-19) SZA (NOAA-19 ) Distance(km) Time Diff (sec)
1 12/09/2017 01:44:45 77.93, 160.44 100.80 12/09/2017 01:44:09 77.92, 160.29 100.79 3.54 36
2 12/09/2017 02:35:27 -77.92, -32.29 79.21 12/09/2017 02:35:04 -77.91, -32.35 79.23 1.65 23
3 12/09/2017 03:26:07 77.91, 135.00 100.79 12/09/2017 03:26:10 77.91, 134.86 100.79 3.19 3
4 12/09/2017 04:16:49 -77.90, -57.73 79.23 12/09/2017 04:17:05 -77.89, -57.77 79.23 1.06 16
5 12/09/2017 05:07:29 77.89, 109.56 100.77 12/09/2017 05:08:11 77.90, 109.44 100.78 2.96 42
6 12/09/2017 05:58:11 -77.88, -83.17 79.24 12/09/2017 05:59:06 -77.88, -83.19 79.24 0.57 55
7 12/09/2017 06:48:58 77.58, 82.73 100.43 12/09/2017 06:50:05 77.61, 85.48 100.55 65.87 67
8 12/19/2017 20:12:42 77.94,-116.53 101.39 12/19/2017 20:11:32 77.97,-116.48 101.41 3.18 70
9 12/19/2017 21:03:24 -77.95, 50.81 78.61 12/19/2017 21:02:29 -77.94, 50.93 78.62 2.99 55
10 12/19/2017 21:54:04 77.93,-141.94 101.37 12/19/2017 21:53:33 77.96,-141.90 101.40 3.19 31
11 12/19/2017 22:44:46 -77.93, 25.39 78.63 12/19/2017 22:44:30 -77.93, 25.51 78.63 2.73 16
12 12/19/2017 23:35:26 77.91,-167.36 101.36 12/19/2017 23:35:34 77.94,-167.33 101.39 3.23 8
13 12/20/2017 00:26:08 -77.92, -0.02 78.64 12/20/2017 00:26:31 -77.91, 0.09 78.64 2.46 23
14 12/20/2017 01:16:48 77.90, 167.23 101.34 12/20/2017 01:17:35 77.93, 167.24 101.38 3.29 47
15 12/20/2017 02:07:30 -77.90, -25.43 78.66 12/20/2017 02:08:32 -77.90, -25.34 78.65 2.18 62




NCC Satellite Simultaneous Nadir Overpasses (SNOs) Prediction Service
